Terminal Aerodrome Forecast
Issued by NWS Salt Lake City, UT

Home | Current Version | Previous Version | Text Only | Print | Product List | Glossary On
Versions: 1 2 3 4 5 6 7 8 9 10 11 12 13 14 15 16 17 18 19 20 21 22 23 24 25
000
FTUS45 KSLC 302333
TAFSLC
TAF
KSLC 302333Z 3100/0106 16005KT P6SM FEW100 SCT140
     FM310500 15011KT P6SM VCSH SCT100 BKN130
     FM310900 17008KT P6SM FEW100 SCT150
     FM311600 18013G18KT P6SM SCT150
     FM312000 34008KT P6SM SCT110 SCT150
     FM010400 14006KT P6SM FEW150=

USA.gov is the U.S. government's official web portal to all federal, state and local government web resources and services.